Location: Unspecified
(0.0000°N, 0.0000°E)
Time: 14:52:15
(UTC+00:00)

CZ-4 DEB - Pass Details

Date: 27 June 2024
Orbit: 785 x 976 km, 99.1° (Epoch: 18 July)

Event Time Altitude Azimuth Distance (km) Brightness Sun altitude
Exits shadow 19:03:08 18° 100° (E) 2,213 ? -13.7°
Maximum altitude 19:05:04 20° 76° (ENE) 2,070 ? -14.2°
Drops below altitude 10° 19:09:23 10° 31° (NNE) 2,715 ? -15.1°
Sets 19:12:30 0° 15° (NNE) 3,654 ? -15.9°
